Regional Weather Roundup
Issued by NWS

Home | Current Version | Previous Version | Text Only | Print | Product List | Glossary Off
Versions: 1 2 3 4 5 6 7 8 9 10 11 12 13 14 15 16 17 18 19 20 21 22 23 24 25 26 27 28 29 30 31 32 33 34 35 36 37 38 39 40 41 42 43 44 45 46 47 48 49 50

000
ASUS43 KIND 241500
RWRIN

WEATHER ROUNDUP FOR INDIANA
NATIONAL WEATHER SERVICE INDIANAPOLIS IN
1100 AM EDT MON JUL 24 2017

NOTE: "FAIR" INDICATES FEW OR NO CLOUDS BELOW 12,000 FEET WITH NO
SIGNIFICANT WEATHER AND/OR OBSTRUCTIONS TO VISIBILITY.

* - STATION DOES NOT REPORT WEATHER SUCH AS PRECIPITATION OR FOG.

+ - STATION NOT QUALITY CONTROLLED BY THE NATIONAL WEATHER SERVICE.
    USE DATA WITH CAUTION...ESPECIALLY DEWPOINT AND RELATIVE
    HUMIDITY OBSERVATIONS.

INZ001>003-010>013-019-020-241600-
NORTHWEST INDIANA

CITY           SKY/WX    TMP DP  RH WIND       PRES   REMARKS
GARY /AIRPORT/ PTSUNNY   72  59  64 N14G26    30.02R
MONTICELLO +   CLOUDY    72  65  79 N9        29.98R

$$

LMZ046-743>745-241600-
SOUTHERN LAKE MICHIGAN

STATION/POSITION TIME  TEMP    WIND        PRES    WAVE
                       AIR SEA DIR/SP/G            HT
                 (UTC) (F)     (DEG/KT/KT) (MB)    (FT)
BURNS HARBOR     1440   69      30/ 14/ 19 1015.9R
MICHIGAN CITY    1430   68      10/ 17/ 21   N/A
5NW MICH CITY    1450   69 74   40/ 16/ 19   N/A     6

$$

INZ004-005-014>016-021>024-241600-
NORTH CENTRAL INDIANA

CITY           SKY/WX    TMP DP  RH WIND       PRES   REMARKS
ELKHART        CLOUDY    68  59  73 N12       29.99R
GOSHEN         PTSUNNY   70  58  65 NE9       29.99R
PERU/GRISSOM   CLOUDY    72  64  78 N10       29.97R
SOUTH BEND     CLOUDY    68  60  75 N13       29.99R
WARSAW +       CLOUDY    70  61  73 N7        29.99R

$$

INZ006>009-017-018-025>027-241600-
NORTHEAST INDIANA

CITY           SKY/WX    TMP DP  RH WIND       PRES   REMARKS
FORT WAYNE     CLOUDY    71  62  73 N10       29.97R
KENDALLVILLE + CLOUDY    66  61  83 N9        29.98R

$$

INZ028-029-035-036-043>045-051>053-241600-
WEST CENTRAL INDIANA

CITY           SKY/WX    TMP DP  RH WIND       PRES   REMARKS
LAFAYETTE      CLOUDY    73  66  78 N9        29.98R
TERRE HAUTE    SUNNY     76  67  73 N6        29.97R

$$

INZ030>032-037>040-046>048-054>057-064-065-241600-
CENTRAL INDIANA

CITY           SKY/WX    TMP DP  RH WIND       PRES   REMARKS
ANDERSON       MOSUNNY   75  64  69 MISG        N/A
COLUMBUS       SUNNY     75  68  78 NW6       29.96R
GREENWOOD *+   SUNNY    N/A N/A N/A N8        29.97S
INDIANAPOLIS   MOSUNNY   76  66  71 N9        29.96R
-EAGLE CREEK   MOSUNNY   75  66  73 NW8       29.96S
KOKOMO +       PTSUNNY   73  64  73 N10       29.99R
MT COMFORT *+  MOSUNNY   73  66  78 N9        29.98R
SHELBYVILLE    SUNNY     78  66  66 N9        29.95S

$$

INZ033-034-041-042-049-050-058-059-241600-
EAST CENTRAL INDIANA

CITY           SKY/WX    TMP DP  RH WIND       PRES   REMARKS
MUNCIE         PTSUNNY   76  66  71 N10       29.97R
RICHMOND +     SUNNY     73  64  73 N7        29.96S

$$

INZ060-061-067>069-081>083-085>088-241600-
SOUTHWEST INDIANA

CITY           SKY/WX    TMP DP  RH WIND       PRES   REMARKS
EVANSVILLE     SUNNY     84  71  65 NW5       29.94S
HUNTINGBURG *+ SUNNY     80  73  79 W3        29.94S

$$

INZ062-063-066-070>080-084-089>092-241600-
SOUTH CENTRAL AND SOUTHEAST INDIANA

CITY           SKY/WX    TMP DP  RH WIND       PRES   REMARKS
BLOOMINGTON    SUNNY     78  67  68 N6        29.96R
MADISON *+     SUNNY     79  66  65 CALM      29.96S

$$





USA.gov is the U.S. government's official web portal to all federal, state and local government web resources and services.